map of KNFE home
KNFE - Airport
Location
City:  Fentress, Virginia, United States
Name:Fentress NALF Airport
ICAO:KNFE
FAA LID:NFE

Details
Type:Airport (Airfield)
Use:Military
Latitude:3641'31"N (36.692036)
Longitude:7608'04"W (-76.134563)
Datum:WGS 1984
Elevation:16 ft (5 m)
Variation:10.92W (WMM2015 magnetic declination)
-0.02 annual change
Runways:1
Longest:8004 × 175 ft (2440 × 53.5 m), paved

Time
Time Zone:UTC-5 (DST-4)
Local Time:

Weather
METAR:KNFE 201356Z AUTO VRB05KT 10SM FEW019 SCT070 BKN090 17/14 A2939 RMK AO2 RAE18 SLP954 P0038 T01720144

Related Locations
Nearby:
Farthest:YAUG: 11786 mi / 18968 km
Augusta [Augusta Airport], WA, AU

Find:

   beyond  
but within

Other Information
Maps:
NOTAMs:
Links:
Sources:

  
  • flag of United States
  • flag of Virginia
  

Sectional Chart

Flight Planning
at skyvector.com

Satellite Image

Google Maps Satellite view

 

Copyright © 2004-2019 Karl L. Swartz. All rights reserved.
The Great Circle Mapper name and logo are trademarks of the Great Circle Mapper.
All other trademarks mentioned herein belong to their respective owners.
Please see credits for attibutions and further copyright information.

  Follow gcmap on Facebook Follow gcmap on Twitter Follow gcmap on Google+ GCmap on LinkedIn

hCard Microformat

Geo Microformat